Regional Weather Roundup
Issued by NWS

Home | Current Version | Previous Version | Graphics & Text | Print | Product List | Glossary On
Versions: 1 2 3 4 5 6 7 8 9 10 11 12 13 14 15 16 17 18 19 20 21 22 23 24 25 26 27 28 29 30 31 32 33 34 35 36 37 38 39 40 41 42 43 44 45 46 47 48 49 50
000
ASUS43 KLMK 300702
RWRKY
KENTUCKY REGIONAL WEATHER ROUNDUP
NATIONAL WEATHER SERVICE LOUISVILLE KY
300 AM EDT TUE AUG 30 2016

NOTE "FAIR" INDICATES FEW OR NO CLOUDS BELOW 12,000 FEET
WITH NO SIGNIFICANT WEATHER AND/OR OBSTRUCTIONS TO VISIBILITY.

KYZ001>023-026-027-061>063-070>075-300800-
WESTERN AND SOUTH CENTRAL KENTUCKY

CITY           SKY/WX    TMP DP  RH WIND       PRES   REMARKS
PADUCAH        CLEAR     75  71  87 NE3       30.09S
HENDERSON      CLEAR     73  68  83 NE3       30.11S
OWENSBORO      CLEAR     77  74  90 CALM      30.12S
HOPKINSVILLE   CLEAR     75  71  89 NE5       30.09F
BOWLING GREEN  CLEAR     74  70  87 CALM      30.11S
GLASGOW        CLEAR     71  71 100 NE6       30.12F
$$

KYZ024-025-028>034-038-045-046-053-300800-
NORTH CENTRAL KENTUCKY

CITY           SKY/WX    TMP DP  RH WIND       PRES   REMARKS
LOUISVILLE/SDF CLEAR     77  71  82 N3        30.13S
LOUISVILLE/LOU CLEAR     76  70  82 CALM      30.14S
FORT KNOX      CLEAR     72  70  92 N3        30.12S
$$

KYZ035>037-039>044-047>052-055>060-089>105-300800-
NORTHEAST KENTUCKY

CITY           SKY/WX    TMP DP  RH WIND       PRES   REMARKS
LEXINGTON      CLEAR     72  68  87 NE3       30.15F
COVINGTON      CLEAR     76  70  82 NE6       30.16F
FRANKFORT      CLEAR     73  70  90 CALM      30.13F
$$

KYZ054-064>069-076>088-106>120-300800-
SOUTHEAST KENTUCKY

CITY           SKY/WX    TMP DP  RH WIND       PRES   REMARKS
JACKSON        CLEAR     72  69  90 CALM      30.16F
LONDON         CLEAR     71  66  84 N3        30.14F
SOMERSET       CLEAR     70  68  94 CALM      30.14F
MIDDLESBORO    CLOUDY    70  70 100 CALM      30.16R
MONTICELLO     SUNNY    N/A N/A N/A NW9       30.15S
$$





USA.gov is the U.S. government's official web portal to all federal, state and local government web resources and services.